Weather History for KDMN - September, 2013

Change the Weather History Date:

Monday, September 9, 2013

  Actual Average Record
Temperature  
Mean Temperature 74 °F 75 °F  
Max Temperature 87 °F 90 °F 98 °F (1959)
Min Temperature 60 °F 60 °F 49 °F (1952)
Cooling Degree Days 9    
Growing Degree Days 24 (Base 50)    
Moisture  
Dew Point 62 °F    
Average Humidity 69    
Maximum Humidity 100    
Minimum Humidity 37    
Precipitation  
Precipitation 0.58 in 0.04 in 0.58 in (2013)
Month to date precipitation 0.62 0.40  
Year to date precipitation 6.86 7.99  
Sea Level Pressure  
Sea Level Pressure 29.82 in    
Wind  
Wind Speed 6 mph (ENE)    
Max Wind Speed 30 mph    
Max Gust Speed 35 mph    
Visibility 8 miles    
Events Rain , Thunderstorm    
T = Trace of Precipitation, MM = Missing Value Source: NWS Daily Summary

Daily Weather History Graph

Daily Weather History Graph

Search for Another Location

Airport or City:

Trip Planner

Search our weather history database for the weather conditions in past years. The results will help you decide how hot, cold, wet, or windy it might be!

Date:

Astronomy

Sep. 09, 2013 Rise Set
Actual Time 6:51 AM MDT 7:24 PM MDT
Civil Twilight 6:26 AM MDT 7:49 PM MDT
Nautical Twilight 5:57 AM MDT 8:18 PM MDT
Astronomical Twilight 5:27 AM MDT 8:47 PM MDT
Moon 10:58 AM MDT (9/9) 10:02 PM MDT (9/9)
Length of Visible Light 13h 22m
Length of Day
12h 33m
Waxing Crescent, 19% of the Moon is Illuminated
Sep 9
Waxing Crescent
Sep 12
First Quarter
Sep 19
Full
Sep 26
Last Quarter
Oct 4
New

Hourly Weather History & Observations

Time (MDT) Temp. Heat Index Dew Point Humidity Pressure Visibility Wind Dir Wind Speed Gust Speed Precip Events Conditions
11:53 AM 84.0 °F 83.0 °F 55.9 °F 38% 29.75 in 10.0 mi ESE 10.4 mph 16.1 mph N/A   Mostly Cloudy
12:53 PM 84.9 °F 83.7 °F 55.9 °F 37% 29.74 in 10.0 mi SE 9.2 mph 16.1 mph N/A   Scattered Clouds
1:53 PM 82.0 °F 82.4 °F 60.1 °F 47% 29.71 in 8.0 mi SE 8.1 mph - 0.00 in Rain Light Rain
2:38 PM 78.8 °F - 62.6 °F 57% 29.91 in 10.0 mi NNW 6.9 mph - 0.01 in Thunderstorm Overcast
2:53 PM 78.1 °F - 62.1 °F 58% 29.70 in 10.0 mi NNW 8.1 mph - 0.01 in   Mostly Cloudy
3:30 PM 82.4 °F 82.5 °F 59.0 °F 45% 29.89 in 10.0 mi NNE 10.4 mph 17.3 mph N/A Thunderstorm Thunderstorm
3:53 PM 80.1 °F 80.6 °F 57.9 °F 47% 29.69 in 10.0 mi NNE 9.2 mph - N/A   Mostly Cloudy
4:26 PM 73.4 °F - 62.6 °F 69% 29.90 in 10.0 mi NE 4.6 mph - 0.01 in Thunderstorm Overcast
4:53 PM 73.9 °F - 61.0 °F 64% 29.71 in 10.0 mi ENE 12.7 mph - 0.01 in   Overcast
5:53 PM 73.9 °F - 61.0 °F 64% 29.73 in 10.0 mi ENE 11.5 mph 23.0 mph 0.00 in   Scattered Clouds
6:36 PM 69.8 °F - 62.6 °F 78% 29.93 in 5.0 mi East 12.7 mph - 0.02 in Rain , Thunderstorm Light Rain
6:48 PM 68.0 °F - 62.6 °F 83% 29.94 in 10.0 mi ESE 15.0 mph - 0.02 in Thunderstorm Overcast
6:53 PM 68.0 °F - 64.0 °F 87% 29.76 in 10.0 mi East 11.5 mph 19.6 mph 0.02 in Rain , Thunderstorm Light Rain
7:02 PM 66.2 °F - 64.4 °F 94% 29.93 in 1.8 mi SE 27.6 mph 34.5 mph 0.07 in Rain , Thunderstorm Rain
7:05 PM 64.4 °F - 62.6 °F 94% 29.94 in 0.8 mi ESE 23.0 mph 34.5 mph 0.17 in Rain Heavy Rain
7:16 PM 64.4 °F - 62.6 °F 94% 29.94 in 2.5 mi East 11.5 mph - 0.23 in Rain Light Rain
7:23 PM 64.4 °F - 62.6 °F 94% 29.95 in 10.0 mi East 12.7 mph - 0.23 in   Overcast
7:53 PM 64.9 °F - 63.0 °F 93% 29.78 in 10.0 mi East 11.5 mph - 0.24 in   Overcast
8:53 PM 66.9 °F - 63.0 °F 87% 29.78 in 10.0 mi NE 4.6 mph - N/A   Overcast
9:53 PM 66.0 °F - 64.0 °F 93% 29.79 in 4.0 mi ENE 5.8 mph - 0.06 in Rain Rain
10:53 PM 64.9 °F - 64.0 °F 97% 29.80 in 9.0 mi ENE 8.1 mph - 0.10 in Rain Light Rain
11:53 PM 64.9 °F - 64.0 °F 97% 29.78 in 10.0 mi East 6.9 mph - 0.02 in   Overcast